ASA1411 KSEA-KLAX

Flight info

Callsign ASA1411
Flight time 2h 10m
Altitude 37000
Route OZWLD1 OZWLD DCT KPOWW DCT SEA152033 DCT JINMO Q7 JAGWA DCT BURGL IRNMN2
Aircraft B739/M-SDE2E3FGHIRWXY/L

Departure

Time 2026-05-03 23:57
Airport Seattle–Tacoma International Airport (KSEA)

Arrival

Time 2026-05-04 02:07
Airport Los Angeles International Airport (KLAX)
Time Latitude Longitude Altitude Speed Heading
2026-05-03 23:16 47.44745 -122.30186 405 ft 0 kts 12°
2026-05-03 23:44 47.44743 -122.30187 408 ft 2 kts 12°
2026-05-03 23:44 47.44718 -122.30194 404 ft 4 kts 11°
2026-05-03 23:44 47.44693 -122.30199 403 ft 4 kts 341°
2026-05-03 23:45 47.44677 -122.30177 405 ft 4 kts 285°
2026-05-03 23:45 47.44673 -122.30153 405 ft 2 kts 279°
2026-05-03 23:45 47.44673 -122.30150 403 ft 1 kts 279°
2026-05-03 23:47 47.44673 -122.30151 405 ft 0 kts 279°
2026-05-03 23:47 47.44678 -122.30198 404 ft 9 kts 279°
2026-05-03 23:47 47.44724 -122.30311 405 ft 16 kts 310°
2026-05-03 23:48 47.44800 -122.30464 407 ft 20 kts 283°
2026-05-03 23:48 47.44754 -122.30629 403 ft 13 kts 185°
2026-05-03 23:48 47.44661 -122.30629 400 ft 11 kts 180°
2026-05-03 23:48 47.44571 -122.30632 395 ft 15 kts 181°
2026-05-03 23:49 47.44462 -122.30632 394 ft 20 kts 179°
2026-05-03 23:49 47.44302 -122.30634 391 ft 29 kts 181°
2026-05-03 23:49 47.44082 -122.30636 385 ft 10 kts 179°
2026-05-03 23:49 47.43998 -122.30635 383 ft 15 kts 180°
2026-05-03 23:50 47.43884 -122.30636 379 ft 12 kts 181°
2026-05-03 23:50 47.43878 -122.30636 379 ft 0 kts 181°
2026-05-03 23:50 47.43846 -122.30638 378 ft 7 kts 182°
2026-05-03 23:50 47.43774 -122.30638 376 ft 13 kts 180°
2026-05-03 23:51 47.43689 -122.30638 373 ft 11 kts 180°
2026-05-03 23:51 47.43599 -122.30597 370 ft 16 kts 154°
2026-05-03 23:51 47.43476 -122.30561 370 ft 21 kts 185°
2026-05-03 23:51 47.43332 -122.30560 363 ft 16 kts 180°
2026-05-03 23:52 47.43207 -122.30550 365 ft 14 kts 158°
2026-05-03 23:52 47.43124 -122.30573 360 ft 14 kts 233°
2026-05-03 23:52 47.43110 -122.30670 362 ft 2 kts 292°
2026-05-03 23:52 47.43111 -122.30673 362 ft 0 kts 294°
2026-05-03 23:53 47.43113 -122.30680 356 ft 5 kts 294°
2026-05-03 23:54 47.43135 -122.30736 358 ft 7 kts 302°
2026-05-03 23:54 47.43165 -122.30791 361 ft 7 kts 324°
2026-05-03 23:54 47.43211 -122.30804 363 ft 7 kts 359°
2026-05-03 23:54 47.43216 -122.30805 358 ft 0 kts 359°
2026-05-03 23:56 47.43224 -122.30805 358 ft 7 kts 359°
2026-05-03 23:56 47.43491 -122.30809 364 ft 71 kts 360°
2026-05-03 23:56 47.44191 -122.30794 390 ft 127 kts 360°
2026-05-03 23:56 47.45235 -122.30801 426 ft 169 kts 359°
2026-05-03 23:57 47.46403 -122.30818 1034 ft 168 kts
2026-05-03 23:57 47.47635 -122.30782 1426 ft 187 kts
2026-05-03 23:57 47.48985 -122.30752 1980 ft 196 kts 360°
2026-05-03 23:57 47.50373 -122.30708 2587 ft 204 kts
2026-05-03 23:58 47.51824 -122.30782 2935 ft 221 kts 358°
2026-05-03 23:58 47.53418 -122.30896 3270 ft 237 kts 357°
2026-05-03 23:58 47.55128 -122.31019 3574 ft 258 kts 352°
2026-05-03 23:58 47.56831 -122.32053 4077 ft 270 kts 325°
2026-05-03 23:59 47.58364 -122.33674 4865 ft 274 kts 324°
2026-05-03 23:59 47.59899 -122.35394 5679 ft 275 kts 316°
2026-05-03 23:59 47.60934 -122.37769 6396 ft 283 kts 287°
2026-05-03 23:59 47.61301 -122.40656 7168 ft 282 kts 278°
2026-05-04 00:00 47.61604 -122.43528 8012 ft 284 kts 279°
2026-05-04 00:00 47.61661 -122.46488 8549 ft 293 kts 255°
2026-05-04 00:00 47.60686 -122.49096 9355 ft 293 kts 225°
2026-05-04 00:00 47.59209 -122.51171 10151 ft 293 kts 224°
2026-05-04 00:01 47.57709 -122.53301 10623 ft 307 kts 225°
2026-05-04 00:01 47.56090 -122.55550 10783 ft 331 kts 217°
2026-05-04 00:01 47.54721 -122.56641 10875 ft 346 kts 198°
2026-05-04 00:01 47.52276 -122.57010 11051 ft 366 kts 172°
2026-05-04 00:02 47.49798 -122.55844 11218 ft 384 kts 156°
2026-05-04 00:02 47.47317 -122.54162 11376 ft 400 kts 154°
2026-05-04 00:02 47.44790 -122.52368 11802 ft 406 kts 154°
2026-05-04 00:02 47.42233 -122.50563 12396 ft 407 kts 154°
2026-05-04 00:03 47.39666 -122.48787 12989 ft 409 kts 155°
2026-05-04 00:03 47.37065 -122.47026 13483 ft 413 kts 155°
2026-05-04 00:03 47.34438 -122.45274 13967 ft 416 kts 155°
2026-05-04 00:03 47.31792 -122.43524 14476 ft 419 kts 155°
2026-05-04 00:04 47.29117 -122.41766 14960 ft 422 kts 155°
2026-05-04 00:04 47.26426 -122.40002 15450 ft 425 kts 155°
2026-05-04 00:04 47.23713 -122.38226 15936 ft 427 kts 155°
2026-05-04 00:04 47.20986 -122.36441 16372 ft 431 kts 155°
2026-05-04 00:05 47.18242 -122.34646 16812 ft 434 kts 155°
2026-05-04 00:05 47.15475 -122.32839 17228 ft 437 kts 155°
2026-05-04 00:05 47.12689 -122.31019 17655 ft 439 kts 155°
2026-05-04 00:05 47.09889 -122.29192 18063 ft 442 kts 155°
2026-05-04 00:06 47.07080 -122.27362 18489 ft 444 kts 155°
2026-05-04 00:06 47.04280 -122.25539 18879 ft 446 kts 155°
2026-05-04 00:06 47.01434 -122.23689 19263 ft 449 kts 155°
2026-05-04 00:06 46.98525 -122.21906 19624 ft 452 kts 160°
2026-05-04 00:07 46.95496 -122.20751 19987 ft 455 kts 170°
2026-05-04 00:07 46.92345 -122.20251 20369 ft 458 kts 174°
2026-05-04 00:07 46.89159 -122.19850 20734 ft 460 kts 174°
2026-05-04 00:07 46.85960 -122.19446 21080 ft 462 kts 174°
2026-05-04 00:08 46.82755 -122.19024 21411 ft 465 kts 174°
2026-05-04 00:08 46.79525 -122.18580 21764 ft 466 kts 173°
2026-05-04 00:08 46.76288 -122.18123 22070 ft 469 kts 173°
2026-05-04 00:08 46.73037 -122.17655 22361 ft 471 kts 173°
2026-05-04 00:09 46.69766 -122.17181 22665 ft 473 kts 173°
2026-05-04 00:09 46.66479 -122.16705 22944 ft 475 kts 173°
2026-05-04 00:09 46.63190 -122.16230 23243 ft 477 kts 173°
2026-05-04 00:09 46.59887 -122.15755 23517 ft 479 kts 173°
2026-05-04 00:10 46.56561 -122.15278 23781 ft 481 kts 173°
2026-05-04 00:10 46.53221 -122.14801 24036 ft 483 kts 173°
2026-05-04 00:10 46.49873 -122.14322 24287 ft 485 kts 173°
2026-05-04 00:10 46.46512 -122.13842 24561 ft 486 kts 173°
2026-05-04 00:11 46.43139 -122.13360 24839 ft 488 kts 172°
2026-05-04 00:11 46.39756 -122.12878 25098 ft 490 kts 172°
2026-05-04 00:11 46.36359 -122.12368 25366 ft 491 kts 171°
2026-05-04 00:11 46.32984 -122.11679 25708 ft 490 kts 169°
2026-05-04 00:12 46.29621 -122.10876 26089 ft 488 kts 168°
2026-05-04 00:12 46.26280 -122.10032 26497 ft 486 kts 168°
2026-05-04 00:12 46.22955 -122.09185 26897 ft 485 kts 168°
2026-05-04 00:12 46.19628 -122.08347 27278 ft 485 kts 168°
2026-05-04 00:13 46.16307 -122.07527 27656 ft 484 kts 168°
2026-05-04 00:13 46.12986 -122.06721 28044 ft 483 kts 168°
2026-05-04 00:13 46.09673 -122.05925 28450 ft 482 kts 168°
2026-05-04 00:13 46.06372 -122.05138 28859 ft 481 kts 168°
2026-05-04 00:14 46.03077 -122.04356 29248 ft 480 kts 168°
2026-05-04 00:14 45.99783 -122.03575 29641 ft 479 kts 168°
2026-05-04 00:14 45.96496 -122.02797 30024 ft 478 kts 168°
2026-05-04 00:14 45.93213 -122.02020 30394 ft 477 kts 168°
2026-05-04 00:15 45.89941 -122.01245 30730 ft 477 kts 169°
2026-05-04 00:15 45.86650 -122.00465 30950 ft 479 kts 169°
2026-05-04 00:15 45.83359 -121.99686 31205 ft 480 kts 169°
2026-05-04 00:15 45.80062 -121.98908 31525 ft 480 kts 169°
2026-05-04 00:16 45.76772 -121.98133 31847 ft 479 kts 169°
2026-05-04 00:16 45.73484 -121.97360 32154 ft 479 kts 169°
2026-05-04 00:16 45.70201 -121.96589 32460 ft 478 kts 169°
2026-05-04 00:16 45.66912 -121.95816 32740 ft 478 kts 169°
2026-05-04 00:17 45.63687 -121.95061 33017 ft 477 kts 169°
2026-05-04 00:17 45.60400 -121.94291 33283 ft 478 kts 169°
2026-05-04 00:17 45.57122 -121.93524 33538 ft 477 kts 169°
2026-05-04 00:17 45.53840 -121.92757 33756 ft 478 kts 169°
2026-05-04 00:18 45.50563 -121.91991 34051 ft 477 kts 169°
2026-05-04 00:18 45.47306 -121.91232 34352 ft 475 kts 169°
2026-05-04 00:18 45.44030 -121.90470 34657 ft 474 kts 168°
2026-05-04 00:18 45.40780 -121.89709 34832 ft 475 kts 168°
2026-05-04 00:19 45.34236 -121.88190 34843 ft 476 kts 169°
2026-05-04 00:19 45.27713 -121.86680 34843 ft 473 kts 169°
2026-05-04 00:20 45.21232 -121.85187 34840 ft 470 kts 169°
2026-05-04 00:20 45.14781 -121.83697 34851 ft 468 kts 169°
2026-05-04 00:21 45.08356 -121.82217 34856 ft 467 kts 169°
2026-05-04 00:21 45.01936 -121.80742 34866 ft 468 kts 169°
2026-05-04 00:22 44.95511 -121.79272 34879 ft 468 kts 169°
2026-05-04 00:22 44.89065 -121.77799 34880 ft 469 kts 169°
2026-05-04 00:23 44.82624 -121.76328 34888 ft 470 kts 169°
2026-05-04 00:23 44.76146 -121.74853 34892 ft 471 kts 169°
2026-05-04 00:24 44.69706 -121.73392 34895 ft 472 kts 169°
2026-05-04 00:24 44.63188 -121.71917 34898 ft 472 kts 169°
2026-05-04 00:25 44.56705 -121.70453 34908 ft 471 kts 169°
2026-05-04 00:25 44.50236 -121.68993 34918 ft 471 kts 169°
2026-05-04 00:26 44.43824 -121.67551 34916 ft 470 kts 169°
2026-05-04 00:26 44.37347 -121.66098 34915 ft 470 kts 169°
2026-05-04 00:27 44.30905 -121.64649 34916 ft 469 kts 168°
2026-05-04 00:27 44.24472 -121.63158 34920 ft 468 kts 168°
2026-05-04 00:28 44.18048 -121.61659 34927 ft 467 kts 168°
2026-05-04 00:28 44.11637 -121.60174 34929 ft 467 kts 168°
2026-05-04 00:29 44.05222 -121.58691 34920 ft 467 kts 168°
2026-05-04 00:29 43.98821 -121.57214 34930 ft 466 kts 168°
2026-05-04 00:30 43.92429 -121.55744 34928 ft 465 kts 168°
2026-05-04 00:30 43.86042 -121.54279 34923 ft 465 kts 168°
2026-05-04 00:31 43.79664 -121.52820 34928 ft 464 kts 168°
2026-05-04 00:31 43.73294 -121.51365 34926 ft 464 kts 169°
2026-05-04 00:32 43.66915 -121.49911 34926 ft 464 kts 169°
2026-05-04 00:32 43.60542 -121.48463 34926 ft 464 kts 169°
2026-05-04 00:33 43.50980 -121.46292 34922 ft 464 kts 169°
2026-05-04 00:34 43.44598 -121.44849 34927 ft 464 kts 169°
2026-05-04 00:34 43.38225 -121.43411 34931 ft 464 kts 169°
2026-05-04 00:35 43.31850 -121.41976 34933 ft 464 kts 169°
2026-05-04 00:35 43.25482 -121.40543 34934 ft 464 kts 169°
2026-05-04 00:36 43.19115 -121.39115 34933 ft 463 kts 169°
2026-05-04 00:36 43.12804 -121.37704 34940 ft 462 kts 169°
2026-05-04 00:37 43.06459 -121.36286 34946 ft 461 kts 169°
2026-05-04 00:37 43.00131 -121.34876 34945 ft 461 kts 169°
2026-05-04 00:38 42.93800 -121.33467 34951 ft 460 kts 169°
2026-05-04 00:38 42.87499 -121.32069 34951 ft 459 kts 169°
2026-05-04 00:39 42.81192 -121.30675 34956 ft 458 kts 169°
2026-05-04 00:39 42.74907 -121.29287 34958 ft 457 kts 169°
2026-05-04 00:40 42.68638 -121.27905 34962 ft 456 kts 169°
2026-05-04 00:40 42.62373 -121.26527 34964 ft 456 kts 169°
2026-05-04 00:41 42.56108 -121.25152 34973 ft 456 kts 169°
2026-05-04 00:41 42.49847 -121.23781 34973 ft 456 kts 169°
2026-05-04 00:42 42.43589 -121.22413 34975 ft 456 kts 169°
2026-05-04 00:42 42.37326 -121.21047 34973 ft 456 kts 169°
2026-05-04 00:43 42.31167 -121.19706 34972 ft 456 kts 169°
2026-05-04 00:43 42.24862 -121.18335 34970 ft 456 kts 169°
2026-05-04 00:44 42.18612 -121.16981 34976 ft 455 kts 169°
2026-05-04 00:44 42.12389 -121.15635 34968 ft 455 kts 169°
2026-05-04 00:45 42.06145 -121.14285 34968 ft 455 kts 169°
2026-05-04 00:45 41.99888 -121.12936 34962 ft 455 kts 169°
2026-05-04 00:46 41.93634 -121.11590 34972 ft 454 kts 169°
2026-05-04 00:46 41.87391 -121.10248 34960 ft 454 kts 169°
2026-05-04 00:47 41.81164 -121.08914 34961 ft 453 kts 169°
2026-05-04 00:47 41.74942 -121.07585 34955 ft 452 kts 169°
2026-05-04 00:48 41.68732 -121.06260 34951 ft 451 kts 169°
2026-05-04 00:48 41.62544 -121.04943 34955 ft 451 kts 169°
2026-05-04 00:49 41.57414 -121.03852 34950 ft 450 kts 169°
2026-05-04 00:49 41.50171 -121.02313 34953 ft 450 kts 169°
2026-05-04 00:50 41.45028 -121.01224 34952 ft 450 kts 169°
2026-05-04 00:50 41.38847 -120.99916 34959 ft 450 kts 169°
2026-05-04 00:51 41.32661 -120.98611 34957 ft 451 kts 169°
2026-05-04 00:51 41.26501 -120.97314 34960 ft 451 kts 169°
2026-05-04 00:52 41.20313 -120.96014 34955 ft 452 kts 169°
2026-05-04 00:52 41.14085 -120.94706 34960 ft 452 kts 169°
2026-05-04 00:53 41.07906 -120.93411 34964 ft 452 kts 169°
2026-05-04 00:53 41.01765 -120.92128 34972 ft 452 kts 169°
2026-05-04 00:54 40.95532 -120.91243 34976 ft 453 kts 174°
2026-05-04 00:54 40.89323 -120.90809 34983 ft 453 kts 175°
2026-05-04 00:55 40.83031 -120.90391 34983 ft 453 kts 174°
2026-05-04 00:55 40.76728 -120.89919 34995 ft 453 kts 174°
2026-05-04 00:56 40.70455 -120.89423 34995 ft 453 kts 174°
2026-05-04 00:56 40.64185 -120.88922 34983 ft 453 kts 174°
2026-05-04 00:57 40.57915 -120.88423 34998 ft 452 kts 174°
2026-05-04 00:57 40.51709 -120.87931 35006 ft 452 kts 174°
2026-05-04 00:58 40.45423 -120.87433 35001 ft 452 kts 174°
2026-05-04 00:58 40.39242 -120.86945 34990 ft 452 kts 174°
2026-05-04 00:59 40.32956 -120.86449 35004 ft 452 kts 174°
2026-05-04 00:59 40.26685 -120.85954 35000 ft 452 kts 174°
2026-05-04 01:00 40.20411 -120.85462 35005 ft 451 kts 174°
2026-05-04 01:00 40.14209 -120.84976 35005 ft 451 kts 174°
2026-05-04 01:01 40.08022 -120.84498 35008 ft 451 kts 174°
2026-05-04 01:01 40.01772 -120.84007 35010 ft 451 kts 174°
2026-05-04 01:02 39.95548 -120.83519 35010 ft 451 kts 174°
2026-05-04 01:02 39.89260 -120.83030 35010 ft 451 kts 174°
2026-05-04 01:03 39.83014 -120.82543 35011 ft 451 kts 174°
2026-05-04 01:03 39.76804 -120.82059 35000 ft 451 kts 175°
2026-05-04 01:04 39.70561 -120.81578 34998 ft 452 kts 175°
2026-05-04 01:04 39.64272 -120.81092 35004 ft 452 kts 175°
2026-05-04 01:05 39.58020 -120.80610 35003 ft 451 kts 175°
2026-05-04 01:05 39.51755 -120.80128 35000 ft 451 kts 175°
2026-05-04 01:06 39.45487 -120.79645 35005 ft 451 kts 175°
2026-05-04 01:06 39.39267 -120.79166 35002 ft 451 kts 175°
2026-05-04 01:07 39.33046 -120.78688 35002 ft 451 kts 175°
2026-05-04 01:07 39.26804 -120.78212 35006 ft 450 kts 176°
2026-05-04 01:08 39.20549 -120.77734 34996 ft 450 kts 176°
2026-05-04 01:08 39.14307 -120.77260 34990 ft 451 kts 176°
2026-05-04 01:09 39.08064 -120.76786 34985 ft 450 kts 176°
2026-05-04 01:09 39.01804 -120.76311 34994 ft 450 kts 176°
2026-05-04 01:10 38.95553 -120.75836 34984 ft 450 kts 177°
2026-05-04 01:10 38.89318 -120.75364 34982 ft 450 kts 177°
2026-05-04 01:11 38.83096 -120.74895 34985 ft 449 kts 177°
2026-05-04 01:11 38.76858 -120.74425 34986 ft 449 kts 178°
2026-05-04 01:12 38.70632 -120.73957 35003 ft 449 kts 178°
2026-05-04 01:12 38.64429 -120.73492 34999 ft 449 kts 178°
2026-05-04 01:13 38.58253 -120.73028 34986 ft 449 kts 178°
2026-05-04 01:13 38.52046 -120.72564 34983 ft 449 kts 178°
2026-05-04 01:14 38.45799 -120.72096 34977 ft 449 kts 179°
2026-05-04 01:14 38.39594 -120.71632 34971 ft 449 kts 179°
2026-05-04 01:15 38.33396 -120.71170 34971 ft 448 kts 179°
2026-05-04 01:15 38.27251 -120.70713 34970 ft 448 kts 179°
2026-05-04 01:16 38.21037 -120.70252 34961 ft 448 kts 179°
2026-05-04 01:16 38.14840 -120.69793 34955 ft 447 kts 179°
2026-05-04 01:17 38.08606 -120.69332 34952 ft 447 kts 179°
2026-05-04 01:17 38.02477 -120.68879 34950 ft 446 kts 180°
2026-05-04 01:18 37.96292 -120.68424 34960 ft 446 kts 180°
2026-05-04 01:18 37.90098 -120.67965 34953 ft 445 kts 181°
2026-05-04 01:19 37.83923 -120.67510 34944 ft 445 kts 181°
2026-05-04 01:19 37.77759 -120.67059 34941 ft 444 kts 181°
2026-05-04 01:20 37.71595 -120.66608 34934 ft 443 kts 182°
2026-05-04 01:20 37.65443 -120.66158 34936 ft 442 kts 182°
2026-05-04 01:21 37.59315 -120.65711 34930 ft 442 kts 182°
2026-05-04 01:21 37.53215 -120.65269 34930 ft 441 kts 182°
2026-05-04 01:22 37.47119 -120.64829 34931 ft 442 kts 182°
2026-05-04 01:22 37.41016 -120.64381 34919 ft 441 kts 182°
2026-05-04 01:23 37.34902 -120.63936 34934 ft 440 kts 182°
2026-05-04 01:23 37.28807 -120.62568 34930 ft 449 kts 172°
2026-05-04 01:24 37.22768 -120.60549 34917 ft 450 kts 172°
2026-05-04 01:24 37.16717 -120.58532 34918 ft 449 kts 173°
2026-05-04 01:25 37.10705 -120.56564 34916 ft 449 kts 173°
2026-05-04 01:25 37.04670 -120.54608 34924 ft 449 kts 173°
2026-05-04 01:26 36.98653 -120.52666 34923 ft 448 kts 174°
2026-05-04 01:26 36.92610 -120.50719 34928 ft 449 kts 174°
2026-05-04 01:27 36.86623 -120.48793 34923 ft 448 kts 174°
2026-05-04 01:27 36.80560 -120.46845 34917 ft 448 kts 175°
2026-05-04 01:28 36.74522 -120.44907 34917 ft 448 kts 175°
2026-05-04 01:28 36.68480 -120.42971 34914 ft 448 kts 176°
2026-05-04 01:29 36.62494 -120.41058 34919 ft 447 kts 176°
2026-05-04 01:29 36.56474 -120.39136 34918 ft 446 kts 176°
2026-05-04 01:30 36.50457 -120.37218 34913 ft 446 kts 176°
2026-05-04 01:30 36.44451 -120.35306 34920 ft 446 kts 177°
2026-05-04 01:31 36.38437 -120.33396 34916 ft 446 kts 177°
2026-05-04 01:31 36.32433 -120.31491 34915 ft 445 kts 178°
2026-05-04 01:32 36.26434 -120.29590 34918 ft 444 kts 178°
2026-05-04 01:32 36.20442 -120.27696 34909 ft 444 kts 178°
2026-05-04 01:33 36.14463 -120.25808 34927 ft 443 kts 178°
2026-05-04 01:33 36.08484 -120.23924 34929 ft 443 kts 178°
2026-05-04 01:34 36.02502 -120.22041 34933 ft 443 kts 178°
2026-05-04 01:34 35.96529 -120.20164 34946 ft 443 kts 179°
2026-05-04 01:35 35.90555 -120.18283 34957 ft 443 kts 178°
2026-05-04 01:35 35.85596 -120.16729 34953 ft 443 kts 179°
2026-05-04 01:36 35.79623 -120.14866 34968 ft 443 kts 179°
2026-05-04 01:36 35.73642 -120.12998 34965 ft 443 kts 179°
2026-05-04 01:37 35.67663 -120.11123 34974 ft 446 kts 176°
2026-05-04 01:37 35.64737 -120.09648 34981 ft 471 kts 163°
2026-05-04 01:37 35.61927 -120.07552 35004 ft 475 kts 160°
2026-05-04 01:38 35.56341 -120.03183 35003 ft 477 kts 160°
2026-05-04 01:38 35.50765 -119.98849 34985 ft 477 kts 161°
2026-05-04 01:39 35.47087 -119.96068 34978 ft 477 kts 161°
2026-05-04 01:39 35.41408 -119.91812 34965 ft 478 kts 161°
2026-05-04 01:40 35.35798 -119.87598 34973 ft 465 kts 162°
2026-05-04 01:40 35.30282 -119.83471 34985 ft 465 kts 162°
2026-05-04 01:41 35.24865 -119.78958 34998 ft 478 kts 156°
2026-05-04 01:41 35.22222 -119.76443 34704 ft 486 kts 155°
2026-05-04 01:41 35.19546 -119.73861 34010 ft 492 kts 155°
2026-05-04 01:41 35.16863 -119.71270 33275 ft 491 kts 155°
2026-05-04 01:42 35.14174 -119.68703 32489 ft 491 kts 155°
2026-05-04 01:42 35.11467 -119.66151 31740 ft 490 kts 155°
2026-05-04 01:42 35.08799 -119.63621 31185 ft 483 kts 155°
2026-05-04 01:42 35.06133 -119.61145 30618 ft 478 kts 155°
2026-05-04 01:43 35.03494 -119.58707 30055 ft 473 kts 155°
2026-05-04 01:43 35.00888 -119.56298 29509 ft 468 kts 155°
2026-05-04 01:43 34.98338 -119.53930 28966 ft 463 kts 154°
2026-05-04 01:43 34.95790 -119.51573 28400 ft 459 kts 154°
2026-05-04 01:44 34.93260 -119.49228 27866 ft 454 kts 154°
2026-05-04 01:44 34.90754 -119.46934 27349 ft 448 kts 154°
2026-05-04 01:44 34.88280 -119.44673 26934 ft 441 kts 153°
2026-05-04 01:44 34.85834 -119.42435 26399 ft 437 kts 154°
2026-05-04 01:45 34.83396 -119.40283 25895 ft 432 kts 154°
2026-05-04 01:45 34.80966 -119.38153 25371 ft 428 kts 154°
2026-05-04 01:45 34.76185 -119.33910 24346 ft 422 kts 153°
2026-05-04 01:46 34.73829 -119.31814 23891 ft 417 kts 153°
2026-05-04 01:46 34.71501 -119.29770 23473 ft 411 kts 153°
2026-05-04 01:46 34.69189 -119.27756 22982 ft 407 kts 153°
2026-05-04 01:46 34.66901 -119.25763 22471 ft 403 kts 153°
2026-05-04 01:47 34.64635 -119.23790 21990 ft 400 kts 153°
2026-05-04 01:47 34.62381 -119.21840 21507 ft 397 kts 152°
2026-05-04 01:47 34.60147 -119.19905 21019 ft 394 kts 152°
2026-05-04 01:47 34.57905 -119.17995 20514 ft 392 kts 153°
2026-05-04 01:48 34.55694 -119.16089 20029 ft 389 kts 152°
2026-05-04 01:48 34.53512 -119.14162 19550 ft 387 kts 151°
2026-05-04 01:48 34.51349 -119.12235 19048 ft 385 kts 151°
2026-05-04 01:48 34.49197 -119.10318 18592 ft 383 kts 150°
2026-05-04 01:49 34.47055 -119.08410 18087 ft 381 kts 150°
2026-05-04 01:49 34.44913 -119.06518 17628 ft 380 kts 150°
2026-05-04 01:49 34.42788 -119.04630 17128 ft 378 kts 149°
2026-05-04 01:49 34.40661 -119.02788 16636 ft 375 kts 151°
2026-05-04 01:50 34.38538 -119.00979 16166 ft 372 kts 150°
2026-05-04 01:50 34.36434 -118.99172 15697 ft 369 kts 150°
2026-05-04 01:50 34.34355 -118.97371 15226 ft 366 kts 149°
2026-05-04 01:50 34.32319 -118.95553 14753 ft 363 kts 148°
2026-05-04 01:51 34.30307 -118.93717 14282 ft 360 kts 148°
2026-05-04 01:51 34.28323 -118.91906 13814 ft 355 kts 147°
2026-05-04 01:51 34.26374 -118.90131 13344 ft 344 kts 147°
2026-05-04 01:51 34.24487 -118.88412 12901 ft 335 kts 147°
2026-05-04 01:52 34.22658 -118.86732 12462 ft 326 kts 147°
2026-05-04 01:52 34.20905 -118.85117 12323 ft 310 kts 147°
2026-05-04 01:52 34.19223 -118.83569 12176 ft 298 kts 147°
2026-05-04 01:52 34.17597 -118.82076 12051 ft 292 kts 147°
2026-05-04 01:53 34.15999 -118.80581 11857 ft 291 kts 144°
2026-05-04 01:53 34.14472 -118.78958 11565 ft 292 kts 141°
2026-05-04 01:53 34.12977 -118.77303 11283 ft 292 kts 141°
2026-05-04 01:53 34.11478 -118.75642 10972 ft 292 kts 141°
2026-05-04 01:54 34.09996 -118.74012 10714 ft 283 kts 141°
2026-05-04 01:54 34.08544 -118.72432 10381 ft 279 kts 141°
2026-05-04 01:54 34.07107 -118.70870 10124 ft 276 kts 140°
2026-05-04 01:54 34.05714 -118.69351 10020 ft 276 kts 140°
2026-05-04 01:55 34.04258 -118.67761 9745 ft 283 kts 140°
2026-05-04 01:55 34.03055 -118.65875 9383 ft 287 kts 112°
2026-05-04 01:55 34.02635 -118.63560 9098 ft 286 kts 97°
2026-05-04 01:55 34.02430 -118.61149 8768 ft 285 kts 97°
2026-05-04 01:56 34.02228 -118.58776 8436 ft 284 kts 97°
2026-05-04 01:56 34.02017 -118.56440 8111 ft 284 kts 97°
2026-05-04 01:56 34.01803 -118.54092 7839 ft 281 kts 97°
2026-05-04 01:56 34.01588 -118.51763 7600 ft 277 kts 97°
2026-05-04 01:57 34.01373 -118.49478 7370 ft 272 kts 98°
2026-05-04 01:57 34.01162 -118.47236 7135 ft 268 kts 98°
2026-05-04 01:57 34.01067 -118.45003 6901 ft 266 kts 83°
2026-05-04 01:57 34.01453 -118.42842 6701 ft 261 kts 78°
2026-05-04 01:58 34.01854 -118.40728 6478 ft 257 kts 79°
2026-05-04 01:58 34.02227 -118.38638 6261 ft 253 kts 79°
2026-05-04 01:58 34.02588 -118.36579 6066 ft 246 kts 79°
2026-05-04 01:58 34.02879 -118.34592 6000 ft 238 kts 84°
2026-05-04 01:59 34.03076 -118.32623 6005 ft 237 kts 85°
2026-05-04 01:59 34.03267 -118.30647 6013 ft 238 kts 85°
2026-05-04 01:59 34.03458 -118.28661 6000 ft 238 kts 85°
2026-05-04 01:59 34.03641 -118.26695 5887 ft 234 kts 85°
2026-05-04 02:00 34.03813 -118.24755 5547 ft 233 kts 85°
2026-05-04 02:00 34.03982 -118.22808 5142 ft 234 kts 85°
2026-05-04 02:00 34.04148 -118.20855 4790 ft 233 kts 85°
2026-05-04 02:00 34.04314 -118.18938 4455 ft 232 kts 85°
2026-05-04 02:01 34.04482 -118.17001 4113 ft 231 kts 85°
2026-05-04 02:01 34.04657 -118.15081 3791 ft 229 kts 88°
2026-05-04 02:01 34.04349 -118.13310 3642 ft 210 kts 128°
2026-05-04 02:01 34.03256 -118.12363 3479 ft 188 kts 168°
2026-05-04 02:02 34.02003 -118.12487 3027 ft 184 kts 211°
2026-05-04 02:02 34.01116 -118.13588 2755 ft 187 kts 231°
2026-05-04 02:02 34.00308 -118.14821 2637 ft 187 kts 231°
2026-05-04 02:02 33.99501 -118.16048 2586 ft 186 kts 231°
2026-05-04 02:03 33.98706 -118.17253 2577 ft 182 kts 232°
2026-05-04 02:03 33.97921 -118.18435 2601 ft 184 kts 231°
2026-05-04 02:03 33.97303 -118.19755 2575 ft 184 kts 260°
2026-05-04 02:03 33.97190 -118.21266 2607 ft 187 kts 262°
2026-05-04 02:04 33.97020 -118.22834 2610 ft 190 kts 261°
2026-05-04 02:04 33.96550 -118.24272 2606 ft 184 kts 234°
2026-05-04 02:04 33.95857 -118.25563 2592 ft 183 kts 240°
2026-05-04 02:04 33.95243 -118.26902 2604 ft 183 kts 240°
2026-05-04 02:05 33.94662 -118.28258 2562 ft 179 kts 257°
2026-05-04 02:05 33.94643 -118.29701 2334 ft 168 kts 267°
2026-05-04 02:05 33.94495 -118.31098 1841 ft 168 kts 261°
2026-05-04 02:05 33.94318 -118.32432 1533 ft 154 kts 263°
2026-05-04 02:06 33.94171 -118.33684 1228 ft 146 kts 262°
2026-05-04 02:06 33.94061 -118.34938 850 ft 155 kts 268°
2026-05-04 02:06 33.93981 -118.36211 452 ft 149 kts 261°
2026-05-04 02:06 33.93823 -118.37414 245 ft 143 kts 262°
2026-05-04 02:07 33.93698 -118.38597 105 ft 142 kts 262°
2026-05-04 02:07 33.93595 -118.39639 95 ft 99 kts 263°
2026-05-04 02:07 33.93537 -118.40196 95 ft 35 kts 264°
2026-05-04 02:07 33.93534 -118.40329 94 ft 12 kts 270°
2026-05-04 02:08 33.93554 -118.40513 96 ft 31 kts 288°
2026-05-04 02:08 33.93594 -118.40735 93 ft 14 kts 267°
2026-05-04 02:08 33.93607 -118.40848 95 ft 13 kts 294°
2026-05-04 02:08 33.93681 -118.40901 93 ft 13 kts 353°
2026-05-04 02:09 33.93745 -118.40908 94 ft 2 kts 353°
2026-05-04 02:09 33.93750 -118.40909 93 ft 0 kts 353°
2026-05-04 02:09 33.93757 -118.40909 93 ft 4 kts
2026-05-04 02:09 33.93791 -118.40846 93 ft 15 kts 79°
2026-05-04 02:10 33.93809 -118.40685 93 ft 22 kts 82°
2026-05-04 02:10 33.93825 -118.40499 97 ft 22 kts 84°
2026-05-04 02:10 33.93841 -118.40332 95 ft 13 kts 82°
2026-05-04 02:10 33.93908 -118.40290 95 ft 12 kts 357°
2026-05-04 02:11 33.93992 -118.40306 92 ft 12 kts 350°
2026-05-04 02:11 33.94073 -118.40323 93 ft 12 kts 351°
2026-05-04 02:11 33.94096 -118.40373 92 ft 5 kts 261°
2026-05-04 02:11 33.94095 -118.40381 92 ft 0 kts 261°